Wind_Speed
15 15 16 17 18 20 24 27 29 29 33 36 37 38 34 32 27 26 26 18 19 22 22 45 43 37 37 37 31 28 29 29 35 37 35 36 32 23 21 23 28 28 26
20 20 21 21 21 22 24 26 26 27 31 33 34 39 41 41 36 33 30 32 29 31 28 34 37 41 30 39 35 34 32 28 25 31 36 39 40 34 32 34 29 33 29
22 24 22 22 24 27 28 27 27 27 29 32 34 35 38 41 41 44 45 40 43 43 45 48 49 45 37 35 40 42 40 35 35 33 39 39 44 47 43 42 44 38 33
30 29 30 29 27 27 28 29 33 33 32 32 34 35 36 38 39 39 41 41 45 49 52 54 55 48 47 49 45 44 48 47 51 51 46 44 46 52 53 53 50 42 41
33 35 35 35 35 35 35 35 35 36 37 41 40 37 38 39 40 39 39 41 45 48 51 54 56 56 53 49 51 52 56 53 50 49 46 48 50 52 56 56 54 54 52
38 41 40 37 40 44 45 46 47 46 45 43 42 45 45 43 42 43 44 46 48 50 56 56 58 61 62 60 58 55 56 53 54 52 50 49 45 48 56 57 56 57 57
44 48 47 47 42 44 50 52 54 56 54 51 47 44 44 47 48 48 47 48 50 53 56 60 63 62 63 65 62 61 61 59 56 56 57 52 50 44 52 59 59 56 56
48 48 51 51 49 55 59 64 64 62 60 59 52 46 48 48 51 51 51 53 52 53 55 58 61 64 63 61 62 64 62 57 57 57 60 60 57 49 51 55 60 62 60
60 58 52 62 59 67 79 76 68 68 69 70 61 53 44 46 42 47 47 50 55 58 59 59 60 62 64 65 63 62 64 65 60 57 58 58 57 57 54 54 53 61 65
67 61 68 58 64 72 66 61 67 70 74 75 74 66 58 49 46 48 49 53 54 57 59 63 61 61 63 65 66 67 67 67 65 65 62 62 59 59 61 61 54 51 57
66 69 63 63 73 64 56 65 72 74 76 78 77 72 67 61 58 58 58 58 60 64 66 67 68 68 67 67 69 70 67 66 68 66 66 65 66 63 61 63 65 56 58
81 69 61 71 75 55 59 71 77 79 80 80 82 71 76 70 72 74 69 67 71 71 71 71 71 74 73 71 71 72 71 69 70 69 67 68 68 68 66 62 64 65 60
81 75 87 71 51 56 70 82 78 77 80 83 94 92 90 80 80 81 76 75 77 75 73 75 79 80 81 81 79 79 77 73 71 70 69 68 71 69 69 69 66 66 67
52 67 79 56 70 70 83 93 94 94 95 101 100 99 95 92 90 87 84 84 77 71 70 69 71 75 80 82 84 84 83 80 77 74 73 73 71 72 72 70 70 68 68
62 72 70 77 74 85 102 98 101 102 102 100 101 108 104 95 91 88 82 76 70 62 60 62 64 66 68 72 77 79 81 82 80 81 78 77 75 73 73 73 71 69 68
71 66 80 94 90 92 96 107 108 106 104 105 108 107 103 95 88 80 75 68 61 55 55 56 56 58 59 60 63 68 70 72 73 78 81 83 80 78 74 73 75 73 69
81 87 94 97 94 100 102 103 102 101 102 104 106 104 97 85 76 69 62 57 54 54 52 48 43 40 42 46 49 52 59 63 65 69 72 78 84 84 81 77 75 76 74
84 81 93 96 95 94 96 95 97 97 98 100 99 92 84 74 66 60 55 49 49 51 45 36 27 27 29 31 35 39 43 49 56 61 65 69 72 81 85 84 79 78 75
86 87 93 93 90 90 91 92 92 92 93 91 86 78 72 68 60 52 47 41 42 41 36 28 27 30 30 31 32 34 34 38 43 49 55 61 66 68 73 79 82 81 78
83 82 82 83 85 87 87 87 85 84 82 79 75 72 70 61 52 49 44 37 33 30 25 25 29 33 35 35 34 33 35 32 33 36 43 49 56 62 64 66 68 75 80
73 74 77 80 80 80 79 75 73 71 72 73 70 64 56 46 36 37 36 29 25 22 21 25 29 34 38 37 37 35 33 32 29 29 31 36 42 51 57 61 63 65 65
71 72 70 70 69 68 66 64 61 63 66 64 56 44 35 26 27 31 25 23 20 14 19 24 29 33 37 38 36 34 32 31 28 27 28 29 31 38 45 54 60 62 62
64 62 61 61 60 59 53 51 55 57 51 47 38 31 24 21 24 22 20 19 15 15 19 24 29 35 38 38 36 32 29 27 26 24 23 21 25 27 31 41 49 54 58
56 55 55 52 49 47 46 48 50 40 37 31 27 22 18 19 17 16 17 14 15 18 21 25 30 34 36 36 30 27 23 20 20 17 15 15 17 19 21 26 35 42 48
50 45 44 43 42 42 43 44 38 34 30 25 20 18 16 16 15 14 16 14 16 20 21 23 26 31 33 33 27 25 21 15 11 13 14 13 14 13 11 13 16 23 31
44 42 42 43 41 40 40 36 32 33 29 25 26 23 19 17 17 18 17 19 21 23 20 22 22 27 30 30 22 19 18 14 10 11 15 17 15 13 10 8 8 11 18
Wind_Direction
326 321 314 309 303 296 289 282 277 272 269 271 270 274 274 272 271 264 258 259 260 233 263 260 265 276 266 267 258 267 277 260 252 253 260 263 262 257 246 241 257 258 272
329 326 323 318 311 304 300 298 295 288 278 275 273 269 268 269 270 268 262 260 251 243 254 256 260 260 271 262 263 271 270 264 259 259 263 261 262 247 238 238 242 253 267
326 323 325 321 315 312 310 304 295 290 287 283 278 273 271 270 268 264 260 259 260 257 254 252 248 256 263 263 258 271 265 259 256 262 268 267 266 262 251 242 250 252 256
324 326 328 327 323 321 318 312 304 301 295 286 283 282 278 273 271 269 265 263 259 252 254 258 255 261 267 266 262 261 266 264 264 268 266 266 262 256 253 251 249 250 252
318 320 323 321 322 321 318 314 311 309 303 299 296 289 283 280 277 273 267 261 256 254 253 253 259 260 264 265 262 263 269 268 266 262 265 265 265 258 248 247 249 249 249
313 316 317 319 321 321 321 320 317 311 307 301 294 293 292 285 279 274 270 267 262 259 259 256 257 260 263 262 262 262 263 267 266 263 261 265 264 255 251 250 248 249 249
312 314 314 315 319 319 319 318 316 314 309 305 294 284 282 283 283 281 277 272 269 266 264 265 263 261 261 265 264 262 261 261 261 263 263 260 260 255 252 252 252 252 250
303 308 309 310 309 315 319 318 315 313 309 305 299 294 283 276 271 274 278 280 277 274 272 269 268 268 265 263 265 265 260 259 258 257 259 260 256 251 251 249 250 251 250
302 298 305 304 302 306 314 315 311 310 308 307 305 302 293 288 280 272 273 280 281 278 274 271 271 270 268 266 261 261 263 260 256 253 253 255 255 252 248 247 249 252 249
298 305 300 298 302 309 311 311 311 310 310 311 310 307 298 292 293 295 289 287 285 279 279 275 270 270 269 267 265 260 259 261 260 258 252 250 250 254 254 246 247 249 247
296 302 293 291 300 306 304 307 309 310 311 309 308 304 304 302 303 302 294 287 287 283 277 272 271 269 267 267 266 265 261 257 257 258 257 251 250 249 248 251 246 244 248
306 292 293 288 294 293 301 308 310 311 309 309 310 306 309 299 300 301 296 294 290 283 278 275 272 269 266 265 263 262 261 259 257 254 252 254 250 249 248 246 248 246 244
297 294 291 287 281 283 300 308 309 305 306 306 309 306 303 299 300 300 297 296 291 286 281 276 271 268 265 263 260 259 258 257 258 256 252 246 252 252 248 248 246 246 244
276 273 280 284 282 286 299 304 304 302 302 304 305 303 301 304 305 302 301 297 292 288 282 278 274 271 270 267 264 261 257 256 254 252 251 249 246 247 249 248 246 246 245
249 258 266 269 277 291 293 296 298 300 301 302 302 301 301 301 298 298 297 294 292 290 288 287 285 279 273 270 267 264 260 256 252 251 249 248 247 244 244 247 246 243 246
254 258 260 276 285 282 287 292 294 295 299 300 300 298 297 297 297 296 295 293 294 294 294 292 287 284 280 275 271 268 265 261 256 250 246 246 245 244 242 242 244 243 240
262 266 266 276 281 284 287 292 296 297 298 298 296 294 293 293 293 291 290 292 293 294 294 292 292 290 287 283 278 273 268 262 258 254 251 246 245 245 244 242 241 242 241
274 265 269 278 286 290 292 291 291 293 294 293 291 292 294 294 290 288 287 286 288 294 294 294 296 300 301 299 292 281 274 267 259 254 251 248 247 244 243 244 242 242 240
282 283 286 290 291 289 290 293 293 292 290 290 292 294 296 295 290 280 276 277 284 291 290 293 300 301 302 301 297 294 288 279 270 262 254 249 245 244 244 244 243 241 241
284 285 287 287 289 291 291 290 289 290 292 295 298 301 302 298 289 278 271 271 282 278 275 290 299 305 309 307 302 298 295 293 286 277 265 255 249 245 242 242 242 242 241
282 284 284 284 285 285 285 289 292 296 299 302 305 307 304 298 282 275 270 275 276 268 269 284 298 306 308 306 303 296 291 289 289 288 279 266 255 247 243 242 241 240 242
279 278 279 280 282 284 289 294 298 301 305 307 309 308 302 287 274 276 283 280 276 264 287 302 310 314 316 312 304 299 292 284 282 284 284 275 265 251 242 239 239 239 240
281 282 282 284 288 291 295 301 304 305 307 312 317 316 293 275 278 288 279 277 263 273 291 303 310 316 321 322 315 302 296 288 283 273 278 282 271 267 254 243 239 238 238
283 283 285 287 288 295 301 305 306 304 307 316 321 317 305 289 282 275 276 266 255 275 291 303 314 320 325 327 322 316 312 298 279 258 271 294 291 274 263 251 244 240 238
284 283 284 288 295 300 305 307 302 298 297 295 304 312 308 293 285 277 278 263 263 274 291 302 316 325 331 334 333 330 329 319 279 251 259 286 310 314 305 276 247 233 233
280 280 285 292 296 300 304 302 296 294 296 299 298 305 302 296 271 284 276 266 270 279 289 296 314 324 329 336 330 340 351 343 304 250 249 259 271 273 267 260 259 246 230
Height
10983 10982 10980 10978 10977 10975 10974 10972 10970 10969 10968 10967 10967 10966 10966 10967 10967 10969 10970 10971 10969 10964 10960 10953 10955 10954 10956 10958 10957 10957 10959 10962 10966 10967 10966 10962 10962 10962 10961 10961 10962 10965 10965
10981 10980 10977 10975 10973 10971 10968 10966 10964 10962 10961 10958 10957 10956 10956 10957 10958 10959 10962 10960 10957 10949 10944 10942 10941 10941 10945 10946 10948 10949 10949 10951 10954 10957 10958 10956 10954 10957 10958 10958 10958 10960 10958
10979 10976 10975 10973 10970 10967 10965 10963 10960 10956 10953 10951 10949 10946 10945 10944 10945 10947 10947 10947 10948 10946 10938 10931 10931 10934 10934 10937 10937 10938 10940 10940 10942 10945 10946 10945 10944 10944 10948 10947 10948 10948 10949
10974 10973 10971 10969 10967 10965 10961 10957 10953 10951 10948 10945 10941 10939 10936 10934 10934 10935 10933 10932 10931 10929 10928 10927 10925 10927 10927 10926 10928 10928 10926 10927 10927 10927 10930 10931 10930 10929 10931 10934 10935 10937 10938
10969 10967 10966 10964 10960 10958 10956 10952 10948 10944 10939 10934 10930 10928 10926 10923 10922 10921 10920 10920 10918 10915 10913 10913 10913 10914 10916 10915 10912 10913 10913 10911 10911 10911 10912 10913 10914 10913 10915 10918 10920 10924 10926
10963 10961 10960 10958 10955 10949 10947 10944 10940 10937 10933 10930 10923 10917 10913 10909 10907 10906 10906 10906 10904 10902 10900 10899 10898 10897 10898 10900 10900 10898 10896 10897 10895 10894 10895 10896 10896 10896 10898 10900 10905 10908 10914
10953 10950 10948 10944 10943 10941 10938 10935 10933 10929 10924 10919 10914 10908 10903 10898 10894 10891 10889 10888 10887 10887 10884 10882 10880 10880 10881 10881 10882 10879 10880 10880 10880 10881 10879 10880 10881 10882 10884 10886 10889 10892 10897
10936 10932 10930 10930 10929 10927 10925 10923 10920 10916 10911 10906 10902 10898 10893 10888 10884 10878 10875 10873 10870 10868 10867 10865 10863 10860 10859 10860 10859 10856 10858 10859 10863 10862 10861 10863 10861 10865 10868 10869 10871 10874 10879
10922 10918 10914 10910 10906 10902 10901 10900 10896 10893 10890 10888 10884 10879 10875 10871 10867 10864 10860 10857 10853 10850 10847 10844 10843 10842 10839 10837 10838 10837 10835 10836 10843 10841 10841 10843 10847 10847 10849 10852 10856 10858 10861
10908 10905 10896 10892 10888 10882 10880 10877 10873 10870 10869 10868 10863 10862 10859 10853 10847 10846 10845 10841 10837 10831 10826 10822 10819 10819 10816 10814 10813 10815 10816 10814 10818 10821 10823 10823 10825 10829 10833 10834 10842 10842 10845
10902 10897 10886 10880 10878 10872 10868 10863 10856 10853 10853 10850 10847 10843 10837 10836 10830 10828 10823 10820 10817 10812 10806 10799 10795 10793 10791 10792 10790 10789 10792 10791 10794 10798 10801 10803 10804 10806 10812 10817 10822 10826 10827
10885 10880 10875 10873 10864 10859 10852 10845 10840 10837 10832 10828 10829 10825 10819 10814 10811 10810 10803 10795 10787 10783 10777 10775 10772 10766 10765 10765 10765 10765 10765 10768 10769 10773 10779 10779 10783 10785 10788 10795 10801 10804 10807
10892 10873 10861 10850 10846 10841 10835 10826 10822 10817 10816 10810 10808 10809 10805 10799 10789 10781 10771 10764 10759 10754 10749 10744 10739 10736 10733 10731 10733 10736 10738 10741 10744 10748 10753 10757 10758 10763 10768 10772 10776 10784 10788
10873 10865 10840 10835 10828 10826 10822 10814 10805 10802 10797 10791 10785 10785 10782 10772 10761 10752 10740 10733 10730 10727 10719 10715 10710 10706 10702 10701 10702 10704 10710 10714 10717 10721 10724 10729 10735 10738 10743 10750 10755 10759 10768
10846 10845 10837 10824 10819 10813 10802 10798 10791 10783 10775 10766 10758 10758 10758 10747 10736 10726 10717 10711 10704 10699 10693 10686 10680 10676 10675 10671 10669 10672 10676 10683 10689 10693 10698 10702 10708 10715 10720 10725 10733 10739 10745
10839 10830 10819 10808 10806 10800 10788 10782 10776 10764 10749 10742 10738 10739 10731 10723 10713 10704 10695 10686 10680 10676 10670 10665 10659 10653 10649 10646 10644 10643 10645 10650 10656 10663 10671 10675 10681 10688 10695 10701 10707 10716 10724
10816 10815 10804 10791 10783 10779 10775 10766 10753 10738 10730 10722 10717 10714 10709 10698 10690 10683 10674 10666 10660 10657 10654 10647 10642 10636 10631 10626 10624 10622 10621 10623 10627 10634 10640 10648 10655 10660 10669 10676 10683 10691 10700
10793 10790 10782 10772 10768 10761 10752 10740 10734 10727 10711 10704 10700 10695 10682 10672 10664 10659 10656 10651 10645 10639 10636 10633 10628 10624 10619 10615 10610 10606 10604 10601 10603 10607 10612 10618 10626 10634 10640 10649 10659 10667 10675
10765 10761 10757 10750 10743 10736 10726 10719 10712 10702 10697 10689 10679 10668 10657 10642 10637 10634 10633 10633 10630 10626 10622 10619 10617 10614 10610 10606 10600 10595 10590 10586 10585 10585 10588 10593 10599 10606 10613 10622 10631 10641 10651
10745 10745 10739 10730 10720 10710 10707 10703 10698 10689 10678 10665 10653 10640 10627 10617 10611 10612 10615 10616 10617 10615 10612 10611 10609 10605 10600 10594 10590 10585 10580 10576 10573 10570 10570 10572 10577 10583 10591 10599 10606 10614 10624
10726 10722 10717 10712 10709 10705 10699 10692 10683 10669 10654 10641 10628 10617 10607 10597 10596 10597 10601 10603 10605 10605 10605 10604 10600 10595 10589 10584 10578 10574 10570 10566 10563 10559 10557 10555 10558 10563 10570 10576 10584 10592 10600
10719 10714 10710 10703 10696 10689 10682 10672 10662 10649 10637 10623 10613 10604 10597 10592 10589 10590 10592 10594 10595 10596 10596 10594 10591 10586 10580 10573 10567 10561 10557 10554 10552 10550 10547 10545 10545 10547 10552 10558 10563 10571 10580
10694 10690 10684 10680 10675 10667 10662 10653 10644 10633 10623 10612 10603 10596 10591 10588 10586 10586 10586 10587 10587 10589 10588 10586 10582 10577 10570 10563 10556 10550 10547 10543 10542 10541 10539 10537 10537 10537 10538 10541 10546 10553 10560
10673 10669 10665 10661 10657 10651 10644 10637 10629 10620 10613 10605 10598 10592 10588 10585 10583 10582 10581 10581 10582 10582 10581 10578 10574 10569 10563 10556 10549 10543 10539 10535 10533 10533 10533 10533 10531 10530 10530 10531 10533 10537 10543
10655 10652 10648 10645 10641 10636 10631 10625 10617 10612 10605 10600 10594 10589 10586 10583 10580 10579 10578 10578 10577 10577 10575 10572 10568 10564 10558 10551 10544 10538 10534 10532 10530 10530 10529 10530 10530 10529 10527 10526 10526 10529 10534
10640 10637 10634 10631 10628 10625 10620 10614 10607 10602 10599 10595 10592 10588 10583 10579 10577 10575 10574 10572 10572 10571 10569 10566 10563 10559 10555 10549 10543 10539 10534 10530 10528 10527 10528 10529 10530 10530 10530 10531 10531 10533 10535